Weather Service Report


356 
FPUS83 KFGF 180731
OPUFGF
PRAIRIE TO PINES WEATHER ROUNDUP
NATIONAL WEATHER SERVICE EASTERN NORTH DAKOTA/GRAND FORKS ND
200 AM CDT THU SEP 18 2014

 **SATELLITE DATA USED TO AUGMENT SKY COVER AT AUTOMATED STATIONS**
 *****  WEATHER ACROSS EASTERN NORTH DAKOTA  *****
  
CITY           SKY/WX    TMP DP  RH WIND       PRES   REMARKS
GRAND FORKS    CLEAR     39  38  96 N3        30.04S                  
GRAND FORKS AF CLEAR     37  37 100 N3        30.04F                  
GRAND CITY NWS   N/A     43 N/A N/A MISG        N/A                   
BUXTON           N/A     44  44  99 N3          N/A                   
DEVILS LAKE    CLEAR     46  37  71 E13       30.01S                  
FARGO          CLEAR     47  44  90 N5        30.00F                  
WAHPETON ARPT  SUNNY     52  48  87 E6        30.01R                  
$$

 *****  WEATHER ACROSS CENTRAL AND WESTERN NORTH DAKOTA  *****
  
CITY           SKY/WX    TMP DP  RH WIND       PRES   REMARKS
JAMESTOWN      CLEAR     46  42  86 CALM      30.01S                  
BISMARCK       CLEAR     49  46  90 E7        29.99F                  
MINOT          CLEAR     48  46  93 SE9       29.96F                  
MINOT AFB      CLEAR     46  46  99 SE8       29.96F                  
GARRISON         N/A     52  51  97 SE7       29.95F                  
WILLISTON      CLEAR     59  47  64 CALM      29.87F                  
DICKINSON      PTCLDY    53  46  77 SE12      29.91F                  
HETTINGER      CLEAR     53  46  77 SE9       29.95F                  
$$

 *****  OTHER OBSERVATIONS NORTHEAST NORTH DAKOTA  *****
  
CITY           SKY/WX    TMP DP  RH WIND       PRES   REMARKS
WALHALLA       FAIR      36  36 100 CALM      30.07S                  
LANGDON        FAIR      39  37  93 E9        30.03F                  
CAVALIER       FAIR      37  36  93 CALM      30.06S                  
GRAFTON        FAIR      37  37 100 N3        30.05S                  
CANDO          FAIR      39  37  93 SE7       30.03S                  
FORT TOTTEN    NOT AVBL                                               
ROLLA          FAIR      37  37 100 S3        30.03F                  
RUGBY          FAIR      45  45 100 E9        29.99F                  
 ***** THE ABOVE OBSERVATIONS ARE NON NWS ARE NOT QUALITY
        CONTROLLED AND MAY MIS-REPORT RAIN FOR SNOW...
$$

 *****  OTHER OBSERVATIONS SOUTHEAST NORTH DAKOTA *****
  
CITY           SKY/WX    TMP DP  RH WIND       PRES   REMARKS
COOPERSTOWN    NOT AVBL                                               
VALLEY CITY    FAIR      45  45 100 NE3       30.02S                  
OAKES            N/A     46  46 100 NE5       30.01R                  
GWINNER        SUNNY     48  48 100 N7        30.02R                  
SHEYENNE NWR     N/A     48  47  96 NE3       29.95                   
BUFFALO          N/A     42  40  93 N2          N/A                   
WYNDMERE       NOT AVBL                                               
 ***** THE ABOVE OBSERVATIONS ARE NON NWS ARE NOT QUALITY
       CONTROLLED AND MAY MIS-REPORT RAIN FOR SNOW...
$$

  *****  WEATHER ACROSS NORTHERN MINNESOTA  *****     
  
CITY           SKY/WX    TMP DP  RH WIND       PRES   REMARKS
FLAG ISLAND    CLEAR     46  39  76 SE5       30.08F                  
WARROAD        CLEAR     43  37  81 E8        30.09F                  
ROSEAU         CLEAR     37  32  81 E6        30.08F                  
HALLOCK        CLEAR     39  37  93 E5        30.06S                  
THF RVR FALLS  CLEAR     43  39  87 E6        30.05S                  
HALSTAD          N/A     40  39  97 NE6         N/A                   
FOSSTON        CLEAR     43  39  87 CALM      30.05S                  
BAUDETTE       CLEAR     35  33  92 E6        30.10S                  
WASKISH        CLOUDY    39  37  93 CALM      30.09R                  
CROOKSTON      CLEAR     46  43  87 E6        30.04S                  
$$
  *****  WEATHER ACROSS CENTRAL AND WEST MINNESOTA  *****     
  
CITY           SKY/WX    TMP DP  RH WIND       PRES   REMARKS
BEMIDJI        CLOUDY    47  46  95 SE10      30.07R                  
PARK RAPIDS    CLOUDY    48  46  93 E7        30.06R                  
WADENA         CLOUDY    46  46 100 E12       30.06R FOG              
DETROIT LAKES  CLEAR     52  50  93 SE7       30.04S                  
MOORHEAD       CLEAR     46  46 100 CALM      30.01S                  
FERGUS FALLS   CLEAR     55  48  76 E5        30.02R                  
ELBOW LAKE     FAIR      55  51  88 E9        30.01S                  
MORRIS MN      CLEAR     52  50  93 E8        30.00S                  
STAPLES        CLOUDY    46  45  93 E7        30.08R                  
WHEATON        CLEAR     45  41  87 E5        30.02S                  
$$
  *****  WEATHER ELSEWHERE ACROSS MINNESOTA  *****     
  
CITY           SKY/WX    TMP DP  RH WIND       PRES   REMARKS
DULUTH         CLOUDY    44  38  79 E14       30.13R                  
INTRNTL FALLS  CLOUDY    39  37  92 SE5       30.12R                  
ELY            CLOUDY    36  36 100 CALM      30.14S                  
CLOQUET        CLOUDY    43  37  81 E8        30.13S                  
BRAINERD       CLOUDY    45  43  93 E6        30.09S                  
HIBBING        CLOUDY    43  39  86 SE12      30.13R                  
ALEXANDRIA     MOCLDY    51  50  96 E10       30.05R                  
SAINT CLOUD    CLOUDY    50  46  86 E9        30.08R                  
MINNEAPOLIS    CLEAR     54  50  86 N7        30.06R                  
$$

  *****  WEATHER ACROSS SOUTH DAKOTA  *****
  
CITY           SKY/WX    TMP DP  RH WIND       PRES   REMARKS
SIOUX FALLS    PTCLDY    59  55  87 E5        29.98S                  
BROOKINGS      NOT AVBL                                               
WATERTOWN      CLEAR     56  48  74 E3        29.99S                  
HURON          CLEAR     56  52  86 E5        29.97R                  
SISSETON         N/A     45  44  97 NW3       29.99S                  
ABERDEEN       CLEAR     48  46  93 NE5       29.99S                  
MITCHELL       CLEAR     58  56  93 SE3       29.97R                  
PIERRE         CLEAR     52  46  80 E7        29.94S                  
MOBRIDGE       CLEAR     54  47  77 E12       29.95F                  
RAPID CITY     CLEAR     57  51  80 SE6       29.96F                  
$$

  *****  SOME WEATHER IN NEARBY STATES *****
  
CITY           SKY/WX    TMP DP  RH WIND       PRES   REMARKS
GLASGOW MT     CLEAR     58  47  66 E15       29.76F                  
GREAT FALLS MT MOCLDY    66  44  45 S9        29.76F                  
CHEYENNE WY    CLEAR     54  42  64 W7        30.11F                  
SCOTTSBLUFF NE CLEAR     56  53  90 SE6       29.98S                  
OMAHA NE       PTCLDY    64  58  80 SE8       29.99S                  
DES MOINES IA  CLEAR     61  56  83 CALM      30.02R                  
DAVENPORT IA   CLEAR     48  45  89 CALM      30.05R                  
CHICAGO IL     CLEAR     56  48  74 CALM      30.05R                  
EAU CLAIRE WI  CLEAR     49  46  90 NE6       30.07R                  
LA CROSSE WI   CLEAR     53  50  89 SE5       30.05R                  
$$

  *****  SOME NATIONAL WEATHER *****
  
CITY           SKY/WX    TMP DP  RH WIND       PRES   REMARKS
LA GUARDIA NY  CLEAR     63  51  65 SW5       29.95F                  
RALEIGH NC     PTCLDY    64  59  83 CALM      29.95F                  
ATLANTA GA     MOCLDY    66  57  72 CALM      29.94F                  
NEW ORLEANS LA PTCLDY    75  72  90 CALM      29.90F                  
OKLAHOMA CITY  CLOUDY    73  64  73 SE7       29.91S                  
ALBUQUERQUE NM CLOUDY    65  57  75 CALM      30.11S                  
SALT LAKE CITY PTCLDY    76  42  29 SE12      29.89S                  
LOS ANGELES CA CLEAR     70  59  68 SW6       29.79R                  
BOISE ID       CLOUDY    79  37  22 SE16      29.70R                  
SEATTLE WA     LGT RAIN  60  56  86 SW6       29.77R                  
$$

*** WEATHER ACROSS MANITOBA...SASKATCHEWAN AND ONTARIO ***
                ***ONTARIO***
  
CITY           SKY/WX    TMP DP  RH WIND       PRES   REMARKS
GERALDTON      PTCLDY    30  27  86 E3        30.17R                  
THUNDER BAY    PTCLDY    36  34  93 NW3       30.19R                  
SIOUX LOOKOUT  CLEAR     27  27 100 CALM      30.14S FOG              
TORONTO        CLEAR     52  45  76 NW2       29.98S                  
BIG TROUT LK   CLEAR     25  21  86 NW3       30.16S                  
PICKLE LAKE    NOT AVBL                                               
DRYDEN         CLEAR     34  34 100 E5        30.13S                  
KENORA         CLEAR     36  34  93 E8        30.12                   
$$      
                *** MANITOBA***
  
CITY           SKY/WX    TMP DP  RH WIND       PRES   REMARKS
BRANDON        CLEAR     36  34  93 E7        30.04F                  
DAUPHIN        CLEAR     39  37  93 E3        30.00F                  
ISLAND LAKE    PTCLDY    37  28  70 S6        30.11F                  
PILOT MOUND      N/A     37  37 100 E8          N/A                   
THE PAS        CLOUDY    41  39  93 SE16      29.89F                  
THOMPSON       PTCLDY    32  28  86 SE5       29.99F                  
WINNIPEG       CLEAR     39  36  87 SE7       30.09F                  
LYNN LAKE      MOCLDY    39  32  75 S8        29.81F                  
CHURCHILL      CLEAR     30  25  80 S17G23    30.01F WCI  18          
GILLAM         PTCLDY    28  25  86 S7        30.06F WCI  21          
$$
                ***SASKATCHEWAN***
  
CITY           SKY/WX    TMP DP  RH WIND       PRES   REMARKS
ESTEVAN        PTCLDY    46  45  93 E13       29.91F                  
KINDERSLEY     MOCLDY    54  48  82 SE8       29.65F                  
LLOYDMINSTER   CLEAR     48  46  93 SE7       29.64F                  
PRINCE ALBERT  PTCLDY    41  41 100 E8        29.75F                  
REGINA         CLEAR     50  46  87 SE17G24   29.84F                  

Return to Home page


Western Regional Climate Center, wrcc@dri.edu